This demonstration page uses our WeatherBlox Daily Observations layout. Learn more.

Left ArrowRight Arrow

34.74481, -87.66753

Hourly Observations for January 24, 2022

Temp ( °F °C ) Dew Point ( °F °C ) Humidity (%) Winds ( mph kmh ) Pressure ( in mb ) Visibility ( mi km ) Precip ( " mm )
12:53 am 00:53 Clear 31 -0.6 27 -2.8 85 85 Calm 29.98 1015 10 16 0.00 0.00
1:53 am 01:53 Clear 30 -1.1 25 -3.9 82 82 Calm 29.98 1015 10 16 0.00 0.00
2:53 am 02:53 Clear 28 -2.2 24 -4.4 85 85 Calm 29.97 1015 10 16 0.00 0.00
3:53 am 03:53 Clear 30 -1.1 26 -3.3 85 85 Calm 29.95 1014 10 16 0.00 0.00
4:53 am 04:53 Clear 28 -2.2 25 -3.9 88 88 Calm 29.94 1014 10 16 0.00 0.00
5:53 am 05:53 Clear 27 -2.8 24 -4.4 89 89 Calm 29.95 1014 10 16 0.00 0.00
6:53 am 06:53 Clear 26 -3.3 24 -4.4 92 92 SE 5 7 29.95 1014 10 16 0.00 0.00
7:53 am 07:53 Sunny 33 0.6 28 -2.2 82 82 SE 5 7 29.94 1014 10 16 0.00 0.00
8:53 am 08:53 Sunny 39 3.9 30 -1.1 70 70 S 3 6 29.95 1014 10 16 0.00 0.00
9:53 am 09:53 Sunny 45 7.2 30 -1.1 56 56 SSW 6 9 29.94 1014 10 16 0.00 0.00
10:53 am 10:53 Sunny 51 10.6 32 0 48 48 WSW 5 7 29.93 1014 10 16 0.00 0.00
11:53 am 11:53 Sunny 58 14.4 32 0 38 38 SW 10 17 29.88 1012 10 16 0.00 0.00
12:53 pm 12:53 Sunny 60 15.6 32 0 35 35 SW 14 22 29.84 1011 10 16 0.00 0.00
1:53 pm 13:53 Sunny 61 16.1 32 0 34 34 SW 9 15 29.81 1010 10 16 0.00 0.00
2:53 pm 14:53 Sunny 61 16.1 33 0.6 35 35 WSW 12 19 29.80 1009 10 16 0.00 0.00
3:53 pm 15:53 Sunny 60 15.6 33 0.6 36 36 WSW 12 19 29.83 1010 10 16 0.00 0.00
4:53 pm 16:53 Sunny 56 13.3 33 0.6 42 42 SW 9 15 29.85 1011 10 16 0.00 0.00
5:53 pm 17:53 Clear 53 11.7 33 0.6 47 47 SSW 6 9 29.86 1011 10 16 0.00 0.00
6:53 pm 18:53 Clear 51 10.6 34 1.1 52 52 SW 7 11 29.87 1012 10 16 0.00 0.00
7:53 pm 19:53 Clear 50 10 34 1.1 54 54 S 3 6 29.88 1012 10 16 0.00 0.00
8:53 pm 20:53 Clear 48 8.9 34 1.1 58 58 SSE 3 6 29.87 1012 10 16 0.00 0.00
9:53 pm 21:53 Clear 49 9.4 35 1.7 59 59 SW 7 11 29.89 1012 10 16 0.00 0.00
10:53 pm 22:53 Clear 50 10 35 1.7 57 57 WSW 8 13 29.89 1012 10 16 0.00 0.00
11:53 pm 23:53 Clear 50 10 35 1.7 57 57 WSW 7 11 29.88 1012 10 16 0.00 0.00

Powered by AerisWeather